This demonstration page uses our WeatherBlox Daily Observations layout. Learn more.

Left ArrowRight Arrow

Hourly Observations for November 10, 2020

Temp ( °F °C ) Dew Point ( °F °C ) Humidity (%) Winds ( mph kmh ) Pressure ( in mb ) Visibility ( mi km ) Precip ( " mm )
12:04 am 00:04 Cloudy with Freezing Rain 32 0 30 -1.1 92 92 NNE 13 20 29.96 1015 2.5 4.02335 0.01 0.254
12:19 am 00:19 Cloudy with Freezing Rain 32 0 30 -1.1 92 92 NNE 16 26 29.94 1014 3 4.82802 0.12 3.048
12:40 am 00:40 Cloudy with Freezing Rain 32 0 30 -1.1 92 92 NNE 12 19 29.94 1014 4 6.43736 0.19 4.826
12:50 am 00:50 Cloudy with Light Wintry Mix 32 0 30 -1 93 93 N 15 24 29.94 1014 5 8.0467 0.21 5.334
12:54 am 00:54 Cloudy with Light Wintry Mix 32 0 30 -1.1 92 92 NNE 14 22 29.91 1013 5 8.0467 0.22 5.588
1:01 am 01:01 Cloudy with Light Wintry Mix 33 0.6 30 -1.1 89 89 NNW 17 28 29.96 1014 5 8.0467 0.02 0.508
1:41 am 01:41 Cloudy with Heavy Rain 32 0 30 -1.1 92 92 N 15 24 29.96 1015 4 6.43736 0.17 4.318
1:54 am 01:54 Cloudy with Heavy Rain 33 0.6 30 -1.1 89 89 N 14 22 29.94 1014 4 6.43736 0.22 5.588
1:57 am 01:57 Cloudy with Heavy Rain 33 0.6 29 -1.7 85 85 N 15 24 29.98 1015 4 6.43736 0.01 0.254
2:00 am 02:00 Cloudy with Heavy Rain 33 0.6 30 -1.1 89 89 N 13 20 29.97 1015 5 8.0467 0.02 0.508
2:31 am 02:31 Cloudy with Light Rain 32 0 29 -1.7 88 88 NNE 20 31 29.9 1012 10 16.0934 0.09 2.286
2:54 am 02:54 Mostly Cloudy 32 0 29 -1.7 88 88 NNE 21 33 29.85 1011 10 16.0934 0.09 2.286
3:36 am 03:36 Cloudy 32 0 29 -1.7 88 88 N 12 19 29.91 1013 10 16.0934 0 0
3:54 am 03:54 Cloudy 32 0 29 -1.7 88 88 N 12 19 29.87 1011 10 16.0934 0 0
4:54 am 04:54 Cloudy with Light Wintry Mix 32 0 30 -1.1 92 92 N 16 26 29.85 1011 2 3.21868 0.001 0.001
5:10 am 05:10 Cloudy with Light Wintry Mix 32 0 30 -1.1 92 92 N 14 22 29.89 1012 1.75 2.816345 0.001 0.001
5:32 am 05:32 Cloudy with Light Wintry Mix 32 0 30 -1.1 92 92 N 15 24 29.86 1011 2 3.21868 0.001 0.001
5:54 am 05:54 Cloudy with Light Wintry Mix 32 0 30 -1.1 92 92 N 14 22 29.83 1010 3 4.82802 0.001 0.001
6:24 am 06:24 Cloudy with Light Wintry Mix 32 0 30 -1.1 92 92 NNE 13 20 29.85 1011 2.5 4.02335 0.001 0.001
6:36 am 06:36 Cloudy with Light Wintry Mix 32 0 30 -1.1 92 92 NNE 13 20 29.84 1010 3 4.82802 0.01 0.254
6:54 am 06:54 Cloudy with Mist and Fog 32 0 30 -1.1 92 92 NNE 13 20 29.8 1009 5 8.0467 0.01 0.254
7:54 am 07:54 Cloudy 32 0 29 -1.7 88 88 NNE 14 22 29.78 1009 10 16.0934 0 0
8:44 am 08:44 Cloudy with Light Rain 33 0.6 30 -1.1 89 89 NW 12 19 29.85 1011 2 3.21868 0.01 0.254
8:54 am 08:54 Cloudy with Light Rain 33 0.6 30 -1.1 89 89 NW 12 19 29.83 1010 2 3.21868 0.02 0.508
9:30 am 09:30 Cloudy with Light Freezing Rain 32 0 29 -1.7 88 88 NW 18 30 29.86 1011 2.5 4.02335 0.02 0.508
9:35 am 09:35 Cloudy with Light Freezing Rain 33 0.6 29 -1.7 85 85 NW 15 24 29.86 1011 3 4.82802 0.02 0.508
9:49 am 09:49 Cloudy with Light Freezing Rain 34 1 28 -2 81 81 NW 17 28 29.85 1011 3 4.82802 0.03 0.762
9:54 am 09:54 Cloudy with Light Freezing Rain 33 0.6 29 -1.7 85 85 NW 21 33 29.83 1010 3 4.82802 0.03 0.762
10:08 am 10:08 Cloudy with Light Freezing Rain 32 0 29 -1.7 88 88 NW 18 30 29.86 1011 3 4.82802 0.001 0.001
10:14 am 10:14 Cloudy with Light Freezing Rain 32 0 29 -1.7 88 88 NW 14 22 29.86 1011 2.5 4.02335 0.001 0.001
10:22 am 10:22 Cloudy with Light Freezing Rain 32 0 29 -1.7 88 88 NNW 15 24 29.85 1011 2.5 4.02335 0.01 0.254
10:32 am 10:32 Cloudy with Light Freezing Rain 33 0.6 30 -1.1 89 89 NNW 13 20 29.85 1011 3 4.82802 0.01 0.254
10:40 am 10:40 Cloudy with Light Freezing Rain 32 0 28 -2.2 85 85 NNW 17 28 29.86 1011 4 6.43736 0.01 0.254
10:49 am 10:49 Cloudy 34 1 28 -2 81 81 NNW 18 30 29.86 1011 9 14.48406 0.01 0.254
10:54 am 10:54 Cloudy 32 0 27 -2.8 82 82 NW 16 26 29.84 1010 10 16.0934 0.01 0.254
11:02 am 11:02 Cloudy with Light Freezing Rain 32 0 27 -2.8 82 82 NW 17 28 29.87 1011 10 16.0934 0.001 0.001
11:09 am 11:09 Cloudy 32 0 27 -2.8 82 82 NW 17 28 29.87 1011 10 16.0934 0.001 0.001
11:54 am 11:54 Cloudy 32 0 27 -2.8 82 82 NW 15 24 29.84 1010 9 14.48406 0.001 0.001
12:06 pm 12:06 Cloudy 32 0 27 -2.8 82 82 NW 14 22 29.87 1011 10 16.0934 0 0
12:14 pm 12:14 Cloudy 32 0 26 -3.3 79 79 NW 17 28 29.88 1012 10 16.0934 0 0
12:45 pm 12:45 Cloudy 32 0 26 -3.3 79 79 WNW 14 22 29.88 1012 10 16.0934 0 0
12:54 pm 12:54 Cloudy 33 0.6 26 -3.3 75 75 NW 12 19 29.85 1011 10 16.0934 0 0
1:24 pm 13:24 Cloudy 32 0 25 -3.9 75 75 WNW 18 30 29.89 1012 10 16.0934 0 0
1:54 pm 13:54 Cloudy 32 0 25 -3.9 75 75 NW 16 26 29.86 1011 10 16.0934 0 0
2:07 pm 14:07 Cloudy 33 0.6 26 -3.3 75 75 NW 13 20 29.89 1012 10 16.0934 0 0
2:23 pm 14:23 Cloudy 32 0 25 -3.9 75 75 NW 18 30 29.88 1012 10 16.0934 0 0
2:54 pm 14:54 Cloudy 32 0 25 -3.9 75 75 WNW 13 20 29.87 1012 10 16.0934 0 0
3:54 pm 15:54 Cloudy 33 0.6 25 -3.9 72 72 WNW 16 26 29.92 1013 10 16.0934 0 0
4:04 pm 16:04 Cloudy 33 0.6 25 -3.9 72 72 W 13 20 29.96 1014 10 16.0934 0 0
4:54 pm 16:54 Cloudy 32 0 25 -3.9 75 75 WNW 13 20 29.94 1014 10 16.0934 0 0
5:13 pm 17:13 Mostly Cloudy 32 0 25 -3.9 75 75 WNW 9 15 29.97 1015 10 16.0934 0 0
5:54 pm 17:54 Cloudy 32 0 26 -3.3 79 79 WNW 9 15 29.96 1014 10 16.0934 0 0
6:54 pm 18:54 Cloudy 32 0 26 -3.3 79 79 W 9 15 29.97 1015 10 16.0934 0 0
7:25 pm 19:25 Partly Cloudy 31 -0.6 25 -3.9 79 79 WNW 6 9 30 1016 10 16.0934 0 0
7:54 pm 19:54 Clear 27 -2.8 23 -5 85 85 S 3 6 29.99 1016 10 16.0934 0 0
8:54 pm 20:54 Clear 28 -2.2 25 -3.9 88 88 S 5 7 30.01 1016 10 16.0934 0 0
9:54 pm 21:54 Clear 28 -2.2 24 -4.4 85 85 Calm 30.01 1016 10 16.0934 0 0
10:54 pm 22:54 Clear 26 -3.3 22 -5.6 84 84 S 6 9 30.01 1016 9 14.48406 0 0
11:54 pm 23:54 Clear 25 -3.9 22 -5.6 88 88 S 5 7 30.01 1016 10 16.0934 0 0

Powered by AerisWeather